Location: Unspecified
(0.0000°N, 0.0000°E)
Time: 07:48:00
(UTC+01:00)

Cosmos 1536 - Visible Passes

Search period start: 10 December 2016 00:00
Search period end: 20 December 2016 00:00
Orbit: 543 x 560 km, 82.5° (Epoch: 09 December)

Date Brightness Start Highest point End Pass type
(mag) Time Alt. Az. Time Alt. Az. Time Alt. Az.
10 Dec 5.9 04:57:10 10° ESE 04:58:57 13° E 05:00:42 10° ENE visible
11 Dec 5.8 04:52:55 10° SE 04:55:09 15° E 04:57:22 10° ENE visible
12 Dec 5.6 04:48:46 10° SE 04:51:22 17° E 04:53:57 10° NE visible
12 Dec 4.5 06:25:24 10° WSW 06:27:32 14° W 06:29:39 10° NW visible
13 Dec 5.4 04:44:41 10° SE 04:47:34 19° E 04:50:26 10° NE visible
13 Dec 4.7 06:22:06 10° WSW 06:23:43 12° W 06:25:22 10° WNW visible
14 Dec 5.1 04:40:40 10° SE 04:43:46 22° E 04:45:28 17° ENE visible
14 Dec 4.8 06:19:09 10° W 06:19:56 10° W 06:20:43 10° WNW visible
15 Dec 4.9 04:36:41 10° SSE 04:39:56 25° E 04:39:56 25° E visible
16 Dec 5.1 04:32:43 10° SSE 04:34:41 22° SE 04:34:41 22° SE visible
17 Dec 5.6 04:28:47 10° SSE 04:29:38 15° SSE 04:29:38 15° SSE visible
